Location: Beekmeers
(50.8953°N, 3.6968°E)
Time: 03:57:43
(UTC+00:00)

Cosmos 1300 - Pass Details

Date: 23 May 2024
Orbit: 465 x 467 km, 82.5° (Epoch: 21 June)

Event Time Altitude Azimuth Distance (km) Brightness Sun altitude
Rises 00:55:57 0° 341° (NNW) 2,520 7.1 -16.6°
Reaches altitude 10° 00:58:12 10° 330° (NNW) 1,637 5.8 -16.5°
Maximum altitude 01:01:22 30° 268° (W) 871 3.6 -16.4°
Enters shadow 01:02:03 27° 246° (WSW) 922 3.6 -16.3°
